Location: Vaughan
(31.9146°N, 97.1736°W)
Time: 22:11:45
(UTC+00:00)

Cosmos 1606 Rocket - Pass Details

Date: 10 December 2025
Orbit: 596 x 625 km, 82.5° (Epoch: 21 January)

Event Time Altitude Azimuth Distance (km) Brightness Sun altitude
Exits shadow 11:42:30 31° 339° (NNW) 1,092 4.5 -19.8°
Maximum altitude 11:44:29 66° 266° (W) 675 3.4 -19.4°
Drops below altitude 10° 11:48:48 10° 184° (S) 1,962 6.3 -18.5°
Sets 11:51:00 0° 182° (S) 2,858 7.2 -18.1°
